Location: *
(43.4667°N, 11.6833°E)
Time: 22:08:05
(UTC+00:00)

Cosmos 2266 Rocket - Pass Details

Date: 19 July 2019
Orbit: 934 x 1008 km, 82.9° (Epoch: 24 August)

Event Time Altitude Azimuth Distance (km) Brightness Sun altitude
Rises 21:38:52 0° 355° (N) 3,738 8.3 -21.7°
Reaches altitude 10° 21:41:31 10° 1° (N) 2,777 7.3 -21.9°
Maximum altitude 21:47:45 54° 78° (ENE) 1,190 4.3 -22.4°
Enters shadow 21:49:38 40° 128° (SE) 1,408 4.4 -22.5°
